Hourly Data Report for October 04, 2020

OTTAWA INTL A
ONTARIO
Current Station Operator: NAVCAN

45°19'00.000" N
75°40'00.000" W
114.90 m
6106001
71628
YOW

Download Data

Hourly Data (October 2020)
Hourly Data Report for October 4, 2020
TIME Temp Definition
°C
Dew Point Definition
°C
Rel Hum Definition
%
Wind Dir Definition
10's deg

Wind Spd Definition
km/h
Visibility Definition
km
Stn Press Definition
kPa
Hmdx Definition


Wind Chill Definition


Weather Definition


00:00 4.9 3.3 90 18 5 24.1 101.04     LegendNANA
01:00 5.2 4.1 93 18 5 24.1 101.03     Mostly Cloudy
02:00 5.6 4.3 91 7 4 24.1 101.02     LegendNANA
03:00 5.3 4.2 92 3 8 24.1 101.01     LegendNANA
04:00 4.7 3.9 94 11 6 24.1 100.99     Mostly Cloudy
05:00 5.3 4.5 94 8 5 24.1 101.04     LegendNANA
06:00 5.2 4.5 95 5 10 24.1 101.06     LegendNANA
07:00 6.1 5.5 96 7 11 24.1 101.07     Cloudy
08:00 7.5 6.7 94 5 14 24.1 101.04     LegendNANA
09:00 9.6 6.0 78 11 9 24.1 101.04     LegendNANA
10:00 11.1 6.4 72 10 8 24.1 101.00     Mostly Cloudy
11:00 12.6 5.6 62 12 16 24.1 100.95     LegendNANA
12:00 13.7 5.0 55 15 14 24.1 100.87     LegendNANA
13:00 13.7 5.8 59 18 15 24.1 100.79     Cloudy
14:00 14.0 6.6 61 18 7 24.1 100.73     LegendNANA
15:00 10.6 8.9 89 8 3 12.9 100.71     Rain
16:00 11.2 8.4 83 36 1 12.9 100.66     Rain
17:00 11.0 9.1 88 2 9 16.1 100.64     Moderate Rain
18:00 10.4 9.4 93 2 10 24.1 100.61     Rain
19:00 9.8 9.1 95 5 13 24.1 100.59     Cloudy
20:00 9.5 8.9 96 5 6 24.1 100.60     Rain
21:00 9.3 8.7 96 5 10 24.1 100.59     LegendNANA
22:00 9.2 8.6 96 4 11 24.1 100.57     Cloudy
23:00 9.5 8.8 95 1 11 24.1 100.55     LegendNANA

Notes on Data Quality.

Legend

  • E = Estimated
  • M = Missing
  • NA = Not Available*
  • [empty] = Indicates an unobserved value
Date modified: